Redmond, OR

4:51 PM PST on November 12, 2019 (GMT -0800)
Roberts Field Airport

Weather History for KRDM - August, 2019

Change the Weather History Date:

Sunday, August 25, 2019

  Actual Average Record
Temperature  
Mean Temperature 65 °F 63 °F  
Max Temperature 83 °F 83 °F 100 °F (2010)
Min Temperature 46 °F 44 °F 31 °F (1992)
Degree Days  
Heating Degree Days 0 3  
Month to date heating degree days 9 56  
Since 1 June heating degree days 191 342  
Since 1 July heating degree days 42 125  
Cooling Degree Days 0 2  
Month to date cooling degree days 113 73  
Year to date cooling degree days 219 199  
Since 1 June cooling degree days 219 194  
Growing Degree Days 14 (Base 50)    
Moisture  
Dew Point 39 °F    
Average Humidity 51    
Maximum Humidity 82    
Minimum Humidity 19    
Precipitation  
Precipitation 0.00 in 0.02 in 0.86 in (2013)
Month to date precipitation T 0.40  
Year to date precipitation 7.46 5.63  
Sea Level Pressure  
Sea Level Pressure 30.07 in    
Wind  
Wind Speed 5 mph (NNE)    
Max Wind Speed 17 mph    
Max Gust Speed 22 mph    
Visibility 10 miles    
Events      
T = Trace of Precipitation, MM = Missing Value Source: NWS Daily Summary

Daily Weather History Graph

Daily Weather History Graph

Search for Another Location

Airport or City:

Astronomy

Aug. 25, 2019 Rise Set
Actual Time 6:19 AM PDT 7:53 PM PDT
Civil Twilight 5:48 AM PDT 8:23 PM PDT
Nautical Twilight 5:11 AM PDT 9:00 PM PDT
Astronomical Twilight 4:32 AM PDT 9:39 PM PDT
Moon 12:51 AM PDT (8/25) 4:27 PM PDT (8/25)
Length of Visible Light 14h 34m
Length of Day
13h 33m
Waning Crescent, 28% of the Moon is Illuminated
Aug 25
Waning Crescent
Aug 30
New
Sep 5
First Quarter
Sep 13
Full
Sep 21
Last Quarter

Hourly Weather History & Observations

Time (PDT) Temp. Dew Point Humidity Pressure Visibility Wind Dir Wind Speed Gust Speed Precip Events Conditions
12:56 AM 54.0 °F 42.1 °F 64% 29.97 in 10.0 mi South 4.6 mph - N/A   Clear
1:56 AM 50.0 °F 42.1 °F 74% 29.97 in 10.0 mi South 4.6 mph - N/A   Clear
2:56 AM 48.9 °F 41.0 °F 74% 29.97 in 10.0 mi South 5.8 mph - N/A   Clear
3:56 AM 50.0 °F 42.1 °F 74% 29.99 in 10.0 mi South 3.5 mph - N/A   Clear
4:56 AM 48.0 °F 41.0 °F 77% 30.02 in 10.0 mi Calm Calm - N/A   Clear
5:56 AM 46.9 °F 41.0 °F 80% 30.04 in 10.0 mi SSE 4.6 mph - N/A   Clear
6:56 AM 48.0 °F 42.1 °F 80% 30.06 in 10.0 mi Calm Calm - N/A   Clear
7:56 AM 57.9 °F 45.0 °F 62% 30.07 in 10.0 mi Calm Calm - N/A   Clear
8:56 AM 64.9 °F 46.0 °F 50% 30.06 in 10.0 mi Calm Calm - N/A   Clear
9:40 AM 68.0 °F 42.8 °F 40% 30.14 in 20.0 mi West 4.6 mph - N/A   Clear
9:56 AM 70.0 °F 44.1 °F 39% 30.07 in 10.0 mi Variable 4.6 mph - N/A   Clear
10:56 AM 73.0 °F 42.1 °F 33% 30.08 in 10.0 mi Variable 4.6 mph - N/A   Clear
11:56 AM 77.0 °F 39.9 °F 26% 30.08 in 10.0 mi Variable 3.5 mph - N/A   Clear
12:56 PM 79.0 °F 37.0 °F 22% 30.08 in 10.0 mi North - - N/A   Clear
1:00 PM 80.1 °F 37.9 °F 22% 30.14 in 10.0 mi North 9.2 mph - N/A   Clear
1:56 PM 81.0 °F 39.0 °F 22% 30.07 in 10.0 mi North 9.2 mph - N/A   Clear
2:56 PM 82.9 °F 42.1 °F 24% 30.06 in 10.0 mi NNE 5.8 mph - N/A   Clear
3:56 PM 82.9 °F 39.9 °F 22% 30.06 in 10.0 mi North 12.7 mph - N/A   Clear
4:56 PM 82.9 °F 39.0 °F 21% 30.06 in 10.0 mi North 11.5 mph - N/A   Clear
5:56 PM 81.0 °F 37.0 °F 21% 30.07 in 10.0 mi North 9.2 mph - N/A   Clear
6:56 PM 78.1 °F 33.1 °F 19% 30.08 in 10.0 mi NNE 11.5 mph - N/A   Clear
7:56 PM 72.0 °F 33.1 °F 24% 30.09 in 10.0 mi NNE 11.5 mph - N/A   Clear
8:56 PM 66.0 °F 33.1 °F 29% 30.11 in 10.0 mi Calm Calm - N/A   Clear
9:56 PM 57.9 °F 34.0 °F 41% 30.13 in 10.0 mi Calm Calm - N/A   Clear
10:56 PM 55.0 °F 34.0 °F 45% 30.14 in 10.0 mi Calm Calm - N/A   Clear
11:56 PM 50.0 °F 36.0 °F 59% 30.13 in 10.0 mi Calm Calm - N/A   Clear